User: anonymous   Login
Location: Arrodets-la-Barthe
(43.0306°N, 0.2829°E)
Time: 22:50:59
(UTC+00:00)
Language:

FO-29 - Orbit

View from above orbital plane
View from above orbital plane
View from above satellite
View from above satellite

Ground track
Ground track

The orbit data is extracted from the following two-line orbital elements,

1 24278U 96046B   24104.79252577  .00000080  00000-0  11829-3 0  9995
2 24278  98.5758  47.8978 0350121 355.2436   4.5407 13.53180392365728
Epoch (UTC): 13 April 2024 19:01:14
Eccentricity: 0.0350121
inclination: 98.5758°
perigee height: 800 km
apogee height: 1321 km
right ascension of ascending node: 47.8978°
argument of perigee: 355.2436°
revolutions per day: 13.53180392
mean anomaly at epoch: 4.5407°
orbit number at epoch: 36572

The dashed part of the orbit path shows where the satellite is in the earth's shadow,  

DLR